Lid_Strength_Index
3 3 3 4 4 4 4 3 4 3 3 3 4 4 4 4 4 3 3 3 3 3 3 3 2 2 3 6 6 -0 -2 -2 3 7 8 5 5 7 8 7 6 8 7 7 6 7 7
3 3 3 4 4 4 4 4 4 4 4 4 4 4 4 4 4 4 3 3 3 3 3 2 2 2 4 8 0 -0 1 2 5 8 6 4 4 6 7 7 9 6 7 8 6 7 7
3 3 3 4 4 4 4 4 3 3 3 4 4 4 4 4 4 4 3 3 3 3 3 2 2 2 5 6 0 1 2 5 6 6 4 2 3 7 7 9 7 6 8 8 7 7 8
3 3 3 4 4 4 4 3 3 3 4 4 4 4 3 3 3 3 3 3 3 2 2 2 2 3 6 1 2 1 2 4 5 4 3 2 3 6 9 8 8 8 9 13 9 7 7
3 3 3 3 4 4 4 3 3 3 4 4 4 4 3 3 2 3 3 3 2 0 0 1 4 5 7 -0 3 2 2 4 4 4 3 1 5 8 8 10 12 11 12 12 11 7 8
2 3 3 3 4 4 4 3 3 3 3 3 3 3 3 3 3 3 3 3 2 2 1 2 3 6 4 4 3 2 1 2 4 4 4 5 8 10 11 13 15 12 12 12 12 9 9
2 2 3 3 4 4 4 4 3 3 3 3 3 3 3 3 3 3 4 3 5 6 4 6 6 5 4 3 2 3 2 3 4 5 8 8 11 13 11 10 9 9 10 11 10 8 10
2 3 3 4 4 4 4 4 3 3 3 4 4 4 3 3 3 3 4 4 4 5 7 3 3 3 2 4 5 3 2 5 6 8 7 9 11 8 8 8 9 10 10 13 11 9 10
3 3 3 4 4 4 4 4 4 3 3 3 3 3 3 3 3 5 4 2 1 3 8 6 4 4 5 3 5 5 4 5 7 8 8 10 8 6 8 8 10 11 13 12 13 10 10
4 4 4 4 4 4 5 5 4 3 3 3 3 3 3 3 4 3 3 1 1 3 10 7 6 5 4 4 6 3 3 5 6 8 8 9 6 7 8 9 9 13 8 10 12 13 17
4 4 4 4 4 5 5 5 4 3 3 3 3 2 2 3 5 4 2 3 3 5 16 7 7 3 4 6 6 5 3 5 7 7 8 9 8 8 9 8 8 11 8 10 11 13 13
4 4 4 4 4 4 5 5 5 3 3 4 3 2 3 3 4 3 2 1 3 12 14 8 6 6 7 6 6 5 5 5 5 7 7 8 6 7 8 6 7 7 8 10 12 14 19
4 4 4 4 4 4 5 5 5 3 3 4 3 3 3 1 4 1 1 4 11 14 8 9 9 7 8 8 7 6 7 9 10 12 12 9 8 7 6 9 7 9 12 16 17 19 19
4 4 4 4 4 4 5 5 5 3 3 4 3 3 3 2 1 1 2 8 15 11 10 6 7 7 9 8 8 7 8 10 7 9 11 12 12 8 6 9 10 11 12 15 19 17 15
4 4 4 4 4 4 5 5 5 4 3 4 3 1 2 1 1 1 5 13 13 10 7 8 8 9 10 7 8 8 9 9 8 9 12 12 11 7 6 6 8 10 12 10 14 13 15
4 4 4 4 3 4 5 5 5 4 3 4 3 2 3 1 0 2 8 12 10 7 6 6 10 8 10 10 10 9 9 8 7 7 7 9 13 8 7 7 7 10 10 14 14 18 19
4 4 4 3 3 4 5 4 5 3 3 4 3 6 2 0 2 5 10 10 8 5 5 7 9 9 9 10 9 11 10 7 6 8 8 10 11 11 9 11 11 11 12 12 13 13 16
4 4 3 3 3 4 4 4 4 3 3 2 4 7 2 2 7 6 9 7 7 6 5 6 7 7 9 8 9 11 9 9 7 8 10 9 11 13 11 9 9 10 12 12 14 15 14
4 4 3 3 3 4 4 5 4 4 4 3 5 5 2 3 10 8 7 7 6 6 6 6 7 7 7 9 10 9 8 6 7 8 11 10 12 15 13 11 10 11 11 12 12 13 13
4 3 3 2 3 4 4 4 3 3 3 4 5 8 5 4 5 7 8 7 8 5 6 6 6 6 7 9 8 9 8 7 7 8 4 6 12 12 16 13 10 11 10 10 12 15 15
3 3 2 2 3 4 4 4 3 2 3 3 5 7 5 8 7 6 7 7 7 8 6 5 6 7 8 10 10 10 8 8 7 5 7 9 12 11 11 9 9 10 10 9 12 12 14
3 2 2 2 3 4 4 3 3 2 4 3 6 6 5 7 6 7 7 8 7 7 7 7 7 6 7 10 9 10 8 9 9 7 9 8 12 11 12 10 10 11 10 9 10 11 12
3 2 2 2 3 4 4 2 3 2 3 3 3 2 5 7 6 7 7 7 7 6 5 5 6 7 8 7 7 7 7 7 7 9 9 10 11 12 14 10 11 14 11 10 10 10 11
2 2 2 2 3 4 3 2 2 2 2 2 2 3 6 9 7 7 6 6 7 6 6 5 5 7 5 5 6 8 8 7 7 9 8 10 11 11 14 12 17 12 8 8 9 9 9
2 2 2 2 3 4 3 2 2 2 2 2 1 3 6 9 6 6 6 6 5 6 6 5 5 4 4 6 8 10 11 11 8 8 9 8 10 13 15 14 12 9 8 9 10 11 8
2 2 2 2 4 4 3 2 2 2 1 2 1 1 4 8 7 4 5 4 7 7 7 6 4 4 5 7 9 13 14 12 12 9 8 8 8 11 13 16 16 11 7 6 7 15 8
2 2 2 2 4 4 3 3 2 1 -0 1 1 0 3 7 4 4 6 7 5 6 7 6 6 6 6 9 11 14 15 10 15 13 13 12 11 13 13 15 12 8 6 6 12 13 7
2 3 2 2 4 3 4 3 2 -0 -0 2 2 -0 3 5 4 3 3 5 5 6 8 6 7 7 8 10 11 12 14 12 14 12 12 13 14 14 13 15 16 6 7 12 9 7 7
3 3 2 3 3 3 4 3 1 -0 -0 2 2 -0 -0 4 4 1 2 1 2 3 5 5 7 7 7 9 9 10 12 11 12 16 9 13 11 13 12 13 8 6 7 6 6 6 6